TimeCDT,TemperatureF,Dew PointF,Humidity,Sea Level PressureIn,VisibilityMPH,Wind Direction,Wind SpeedMPH,Gust SpeedMPH,PrecipitationIn,Events,Conditions,WindDirDegrees,DateUTC
12:56 AM,63.0,60.1,90,29.93,-9999.0,North,8.1,-,N/A,,Unknown,350,2012-07-27 05:56:00
1:56 AM,63.0,60.1,90,29.94,-9999.0,NNW,11.5,-,N/A,,Unknown,340,2012-07-27 06:56:00
2:56 AM,64.0,60.1,87,29.95,-9999.0,North,12.7,-,N/A,,Unknown,350,2012-07-27 07:56:00
3:56 AM,63.0,60.1,90,29.95,-9999.0,North,11.5,-,N/A,,Unknown,360,2012-07-27 08:56:00
4:56 AM,63.0,60.1,90,29.96,-9999.0,North,6.9,-,N/A,,Unknown,350,2012-07-27 09:56:00
5:56 AM,59.0,57.9,96,29.98,-9999.0,NNW,8.1,-,N/A,,Unknown,340,2012-07-27 10:56:00
6:56 AM,60.1,57.9,93,30.00,-9999.0,NNW,9.2,-,N/A,,Unknown,340,2012-07-27 11:56:00
7:56 AM,62.1,57.9,86,30.02,-9999.0,NNW,11.5,-,N/A,,Unknown,340,2012-07-27 12:56:00
8:56 AM,64.9,60.1,84,30.03,-9999.0,NNW,10.4,-,N/A,,Unknown,340,2012-07-27 13:56:00
9:56 AM,68.0,59.0,73,30.04,-9999.0,North,12.7,-,N/A,,Unknown,360,2012-07-27 14:56:00
10:56 AM,70.0,62.1,76,30.04,-9999.0,North,8.1,-,N/A,,Unknown,360,2012-07-27 15:56:00
11:56 AM,73.0,62.1,68,30.04,-9999.0,NNE,9.2,-,N/A,,Unknown,30,2012-07-27 16:56:00
12:56 PM,73.9,62.1,66,30.04,-9999.0,NE,8.1,-,N/A,,Unknown,40,2012-07-27 17:56:00
1:56 PM,75.0,61.0,62,30.03,-9999.0,North,4.6,-,N/A,,Unknown,10,2012-07-27 18:56:00
2:56 PM,75.9,60.1,58,30.02,-9999.0,Calm,Calm,-,N/A,,Unknown,0,2012-07-27 19:56:00
3:56 PM,77.0,59.0,54,30.01,-9999.0,ENE,4.6,-,N/A,,Unknown,70,2012-07-27 20:56:00
4:56 PM,78.1,57.9,50,30.00,-9999.0,ENE,3.5,-,N/A,,Unknown,70,2012-07-27 21:56:00
5:56 PM,77.0,59.0,54,30.01,-9999.0,East,4.6,-,N/A,,Unknown,100,2012-07-27 22:56:00
6:56 PM,75.0,61.0,62,30.00,-9999.0,Calm,Calm,-,N/A,,Unknown,0,2012-07-27 23:56:00
7:56 PM,72.0,62.1,71,30.01,-9999.0,Calm,Calm,-,N/A,,Unknown,0,2012-07-28 00:56:00
8:56 PM,69.1,63.0,81,30.01,-9999.0,Calm,Calm,-,N/A,,Unknown,0,2012-07-28 01:56:00
9:56 PM,66.0,60.1,81,30.02,-9999.0,South,3.5,-,N/A,,Unknown,180,2012-07-28 02:56:00
10:56 PM,64.0,61.0,90,30.03,-9999.0,Calm,Calm,-,N/A,,Unknown,0,2012-07-28 03:56:00
11:56 PM,61.0,59.0,93,30.01,-9999.0,Calm,Calm,-,N/A,,Unknown,0,2012-07-28 04:56:00